GMTTGMFK

Guest
Details From GMTT - IBN BATOUTA
To GMFK - MOULAY ALI CHERIF
Flight Number -
Tags generated
Created
Modified
Stats Distance 244 nm / 452 km
Max Altitude 23,500 ft / 7,163 m
Waypoints 5
Social Downloads 0
Likes 0
Share VATSIM

Download

Looking for another format? Having issues loading an existing format? Contact us
Advertisement - Login to hide

Notes

Basic altitude profile: - Ascent Rate: 2500ft/min - Ascent Speed: 250kts - Cruise Altitude: 35000ft - Cruise Speed: 420kts - Descent Rate: 1500ft/min - Descent Speed: 250kts Options: - Use NATs: yes - Use PACOTS: yes - Use low airways: yes - Use high airways: yes

Route

GMTT IXODA W240F ERA GMFK

ID Type Via Altitude Latitude Longitude Leg Dist Tot Dist Heading (true) Name
O GMTT APT - 0 ft / 0 m 35.72691˚ -5.91690˚ - 0 nm - IBN BATOUTA
IXODA FIX - 17,600 ft / 5,364 m 34.95889˚ -5.54833˚ 49 nm 49 nm 159° / 159° -
FES VOR W240F (AWY-LO) 23,500 ft / 7,163 m 33.92750˚ -5.01361˚ 67 nm 116 nm 157° / 157° SAISS VOR-DME
ERA VOR W240F (AWY-LO) 17,500 ft / 5,334 m 31.92417˚ -4.36056˚ 124 nm 241 nm 165° / 165° ERRACHIDIA VOR-DME
O GMFK APT - 0 ft / 0 m 31.94825˚ -4.40096˚ 2 nm 244 nm 305° / 305° MOULAY ALI CHERIF

Altitude Profile

Advertisement - Login to hide

Weather


0- 5 10 15 20 25 30 35+ Temperature / ° C

Clouds and Precipitation
Forecast for 2018-05-20 12:00 UTC. Updated 2 hours ago

Ground ~20,000 ft ~40,000 ft Winds

GMTT

Details ICAO GMTT (TNG)
Name IBN BATOUTA
Region Morocco
Timezone Africa/Casablanca (UTC+0.0)
Stats Elevation 62 ft / 19 m (AMSL)
Location 35.726911° -5.916900°
Runways 2
Magnetic Variation 1.241° W

METAR

GMTT 201230Z 06011KT 9999 FEW016 24/12 Q1013 NOSIG

Decode

TAF

TAF GMTT 201100Z 2012/2118 12005KT 9999 FEW016 BECMG 2109/2111 26010KT

Decode

Departure Runways

ID Width Length Bearing (true) Bearing (mag) Surface Threshold Offset Overrun Length
07 98 ft / 30 m 6,555 ft / 1,998 m 69.91° 71.15° Asphalt 0 ft / 0 m 0 ft / 0 m
10 148 ft / 45 m 11,465 ft / 3,495 m 96.01° 97.25° Asphalt 0 ft / 0 m 197 ft / 60 m
25 98 ft / 30 m 6,555 ft / 1,998 m 249.92° 251.16° Asphalt 0 ft / 0 m 0 ft / 0 m
28 148 ft / 45 m 11,465 ft / 3,495 m 276.03° 277.27° Asphalt 1,640 ft / 500 m 197 ft / 60 m

GMFK

Details ICAO GMFK (ERH)
Name MOULAY ALI CHERIF
Region Morocco
Timezone Africa/Casablanca (UTC+0.0)
Stats Elevation 3,428 ft / 1,045 m (AMSL)
Location 31.948252° -4.400956°
Runways 1
Magnetic Variation 0.878° W

METAR

GMFK 201200Z 13006KT 100V210 9999 SCT023 FEW033CB 20/06 Q1015 NOSIG

Decode

TAF

Not found

Destination Runways

ID Width Length Bearing (true) Bearing (mag) Surface Threshold Offset Overrun Length
13 148 ft / 45 m 10,576 ft / 3,224 m 125.08° 125.96° Asphalt 0 ft / 0 m 0 ft / 0 m
31 148 ft / 45 m 10,576 ft / 3,224 m 305.10° 305.98° Asphalt 0 ft / 0 m 0 ft / 0 m

Popular Alternatives